Location: Franzen
(48.6167°N, 15.3833°E)
Time: 09:56:40
(UTC+00:00)

A-11 Canister half - Pass Details

Date: 04 August 2021
Orbit: 1515 x 1685 km, 47.2° (Epoch: 21 September)

Event Time Altitude Azimuth Distance (km) Brightness Sun altitude
Rises 17:46:02 0° 266° (W) 4,817 13.1 6.1°
Reaches altitude 10° 17:49:06 10° 266° (W) 3,853 12.6 5.6°
Maximum altitude 17:59:01 84° 180° (S) 1,674 9.3 4.1°
Drops below altitude 10° 18:09:13 10° 94° (E) 3,948 10.6 2.5°
Sets 18:12:24 0° 94° (E) 4,939 11.0 2.0°
